KD8UYA Weather Reports


Display with metric or nautical units.
time (UTC)temp
F
wind
direction
speed
MPH
gust
MPH
rain 1hr
in
rain 24hr
in
rain mn
in
humidity
%
barometer
mb
20260903013052 81 278 0.0 0.0 0.00 0.00 0.00 81 1011.2
20260903011545 82 283 0.0 0.0 0.00 0.00 0.00 80 1011.4
20260903010045 81 274 0.0 4.0 0.00 0.00 0.00 81 1011.2
20260903004543 82 257 0.0 2.0 0.00 0.00 0.00 80 1011.0
20260903003043 83 257 0.0 3.0 0.00 0.00 0.00 79 1010.9
20260903001543 83 248 0.0 0.0 0.00 0.00 0.00 77 1010.7
20260903000044 85 250 0.0 1.0 0.00 0.00 0.00 75 1010.8
20260902234546 86 240 0.0 8.0 0.00 0.00 0.00 72 1010.8
20260902233040 87 327 2.0 6.0 0.00 0.00 0.00 70 1010.8
20260902231541 87 252 0.0 5.0 0.00 0.00 0.00 70 1010.8
20260902230040 88 277 1.0 5.0 0.00 0.00 0.00 68 1010.7
20260902224601 89 265 2.0 9.0 0.00 0.00 0.00 67 1010.7
20260902223039 89 294 2.0 8.0 0.00 0.00 0.00 66 1010.7
20260902221539 89 266 1.0 11.0 0.00 0.00 0.00 67 1010.6
20260902220043 89 259 4.0 10.0 0.00 0.00 0.00 65 1010.6
20260902214537 90 298 3.0 10.0 0.00 0.00 0.00 65 1010.7
20260902213035 89 288 5.0 12.0 0.00 0.00 0.00 66 1010.8
20260902211535 89 269 2.0 12.0 0.00 0.00 0.00 66 1010.9
20260902210033 89 277 4.0 8.0 0.00 0.00 0.00 65 1011.0
20260902204538 90 255 3.0 8.0 0.00 0.00 0.00 64 1011.3
20260902203033 90 262 3.0 12.0 0.00 0.00 0.00 62 1011.3
20260902201527 90 309 3.0 9.0 0.00 0.00 0.00 64 1011.5
20260902200140 90 289 3.0 11.0 0.00 0.00 0.00 66 1011.5
20260902194527 91 263 3.0 8.0 0.00 0.00 0.00 64 1011.7
20260902193021 91 271 6.0 11.0 0.00 0.00 0.00 63 1011.8
20260902191519 91 253 6.0 11.0 0.00 0.00 0.00 65 1012.0
20260902190030 90 285 3.0 9.0 0.00 0.00 0.00 65 1012.1
20260902184514 90 311 3.0 10.0 0.00 0.00 0.00 66 1012.3
20260902183013 89 288 4.0 9.0 0.00 0.00 0.00 66 1012.5
20260902181511 90 284 5.0 11.0 0.00 0.00 0.00 68 1012.6
20260902180010 89 311 4.0 8.0 0.00 0.00 0.00 66 1012.7
20260902174507 89 299 3.0 8.0 0.00 0.00 0.00 66 1013.0
20260902173007 89 302 3.0 8.0 0.00 0.00 0.00 66 1013.2
20260902171504 88 275 3.0 9.0 0.00 0.00 0.00 66 1013.4
20260902170004 88 277 4.0 9.0 0.00 0.00 0.00 66 1013.4
20260902164600 88 259 2.0 6.0 0.00 0.00 0.00 69 1013.4
20260902163057 87 302 2.0 11.0 0.00 0.00 0.00 71 1013.5
20260902161555 86 284 3.0 7.0 0.00 0.00 0.00 76 1013.6
20260902160056 86 275 3.0 7.0 0.00 0.00 0.00 77 1013.8
20260902154649 85 265 1.0 7.0 0.00 0.00 0.00 77 1013.8
20260902153046 84 253 1.0 5.0 0.00 0.00 0.00 77 1014.0
20260902151544 84 311 2.0 9.0 0.00 0.00 0.00 78 1014.0
20260902150042 84 249 3.0 8.0 0.00 0.00 0.00 78 1014.0
20260902144539 83 296 3.0 8.0 0.00 0.00 0.00 81 1013.8
20260902143035 82 254 2.0 7.0 0.00 0.00 0.00 83 1013.7
20260902141537 81 220 1.0 8.0 0.00 0.00 0.00 84 1013.6
20260902140029 81 295 2.0 8.0 0.00 0.00 0.00 85 1013.6
20260902134526 80 263 4.0 7.0 0.00 0.00 0.00 85 1013.6
20260902133023 80 219 1.0 8.0 0.00 0.00 0.00 87 1013.5
20260902131525 79 268 2.0 4.0 0.00 0.00 0.00 87 1013.6
20260902130018 78 283 1.0 6.0 0.00 0.00 0.00 89 1013.6
20260902124514 77 278 1.0 3.0 0.00 0.00 0.00 90 1013.5
20260902123012 76 281 1.0 5.0 0.00 0.00 0.00 91 1013.6
20260902121510 75 360 0.0 4.0 0.00 0.00 0.00 93 1013.5
20260902120008 74 257 0.0 0.0 0.00 0.00 0.00 94 1013.3
20260902114512 74 268 0.0 0.0 0.00 0.00 0.00 95 1013.1
20260902113006 74 268 0.0 0.0 0.00 0.00 0.00 95 1013.0
20260902111506 74 269 0.0 0.0 0.00 0.00 0.00 95 1012.9
20260902110012 74 270 0.0 3.0 0.00 0.00 0.00 95 1012.8
20260902104507 74 267 0.0 0.0 0.00 0.00 0.00 95 1012.8
20260902103005 74 267 0.0 2.0 0.00 0.00 0.00 95 1012.8
20260902101504 74 267 0.0 3.0 0.00 0.00 0.00 95 1012.8
20260902100005 74 276 0.0 2.0 0.00 0.00 0.00 95 1012.5
20260902094503 74 290 1.0 3.0 0.00 0.00 0.00 95 1012.7
20260902093002 74 256 0.0 0.0 0.00 0.00 0.00 95 1012.8
20260902091502 74 256 0.0 0.0 0.00 0.00 0.00 95 1012.9
20260902090002 74 256 0.0 0.0 0.00 0.00 0.00 95 1013.0
20260902084604 75 256 0.0 0.0 0.00 0.00 0.00 94 1012.9
20260902083103 75 256 0.0 0.0 0.00 0.00 0.00 94 1012.8
20260902081604 75 267 0.0 0.0 0.00 0.00 0.00 94 1012.8
20260902080108 75 257 0.0 3.0 0.00 0.00 0.00 95 1012.8
20260902074558 74 263 0.0 2.0 0.00 0.00 0.00 95 1012.7
20260902073059 74 260 0.0 0.0 0.00 0.00 0.00 95 1012.7
20260902071559 73 259 0.0 0.0 0.00 0.00 0.00 95 1012.8
20260902064604 73 259 0.0 0.0 0.00 0.00 0.00 94 1013.0
20260902063055 73 259 0.0 0.0 0.00 0.00 0.00 93 1013.1
20260902061607 73 259 0.0 0.0 0.00 0.00 0.00 93 1013.1
20260902060056 73 259 0.0 0.0 0.00 0.00 0.00 92 1013.1
20260902054559 73 259 0.0 0.0 0.00 0.00 0.00 92 1013.0
20260902053052 73 259 0.0 2.0 0.00 0.00 0.00 93 1013.0
20260902051555 73 260 0.0 2.0 0.00 0.00 0.00 93 1013.1
20260902050056 73 256 0.0 0.0 0.00 0.00 0.00 92 1013.0
20260902044546 74 256 0.0 0.0 0.00 0.00 0.00 92 1012.9
20260902043044 74 256 0.0 0.0 0.00 0.00 0.00 91 1012.7
20260902041553 75 256 0.0 0.0 0.00 0.00 0.00 90 1012.7
20260902040039 76 256 0.0 0.0 0.00 0.00 0.00 89 1012.5
20260902034538 77 256 0.0 0.0 0.00 0.00 0.00 88 1012.7
20260902033042 77 237 1.0 5.0 0.00 0.00 0.00 88 1012.8
20260902031537 77 237 0.0 4.0 0.00 0.00 0.00 89 1012.7
20260902030036 77 251 2.0 6.0 0.00 0.00 0.00 90 1012.7
20260902024535 76 270 1.0 5.0 0.00 0.00 0.00 91 1012.6
20260902023035 75 266 0.0 3.0 0.00 0.00 0.00 91 1012.6
20260902021538 75 269 0.0 0.0 0.00 0.00 0.00 90 1012.4
20260902020034 75 269 0.0 2.0 0.00 0.00 0.00 89 1012.3
20260902014538 76 269 0.0 0.0 0.00 0.00 0.00 87 1012.4